[[{"header":{"parameterUnit":"m.s-1","parameterCategory":1,"la1":30.2991,"la2":30.254,"lo1":-89.0895,"lo2":-89.0444,"dx":0.0017,"dy":0.0017,"nx":28,"ny":28,"refTime":"2023-02-12T09:00:00:Z","depth":0,"parameterNumber":2,"parameterNumberName":"U-component_of_WINDS"},"data":[0,0,0,0,0,0,0,0,0,0,0,0,0,0,0,0,0,0,0,0,0,0,0,0,0,0,0,0,0,0,0,0,0,0,0,0,0,0,0,0,0,0,0,0,0,0,0,0,0,0,0,0,0,0,0,0,0,0,3.6398,3.64,0,3.6536,3.6537,3.6539,3.6495,3.6492,3.6489,3.6486,3.663,3.6637,3.6643,0,0,0,0,0,0,0,0,0,0,0,0,0,3.6103,3.6108,3.6398,3.64,3.6402,3.6535,3.6537,3.6539,3.6495,3.6492,3.6488,3.6485,3.6628,3.6636,3.6644,0,0,0,0,0,0,0,0,0,0,0,0,0,3.6235,3.611,3.6398,3.6396,3.6397,3.6535,3.6537,3.654,3.6496,3.6492,3.6487,3.6483,3.6626,3.6635,3.6645,3.6794,0,0,3.6675,3.6679,0,0,0,0,0,0,0,0,3.6227,3.6246,3.6394,3.6396,3.6398,3.6493,3.6486,3.6625,3.6497,3.6459,3.6486,3.6481,3.6589,3.6601,3.6637,3.6801,3.6807,3.6676,3.6682,3.6686,3.6689,0,0,0,0,0,0,0,3.6218,3.6239,3.6453,3.6397,3.6399,3.639,3.6403,3.6512,3.6547,3.6462,3.6459,3.6475,3.6589,3.6627,3.664,3.6809,3.6676,3.6685,3.6691,3.6694,3.7105,3.711,0,0,0,0,0,0,3.6207,3.6232,3.6448,3.6457,3.63,3.6398,3.6414,3.6467,3.6545,3.6553,3.6479,3.6473,3.6613,3.6628,3.6645,3.6827,3.6686,3.6695,3.6701,3.7101,3.7107,3.7112,0,0,0,0,0,0,3.6201,3.6227,3.6443,3.6344,3.637,3.6408,3.6468,3.6472,3.6511,3.6559,3.6565,3.6512,3.661,3.6631,3.6758,3.6831,3.67,3.6709,3.7095,3.7102,3.7109,3.719,0,0,0,0,0,0,3.6193,3.6225,3.6281,3.6345,3.6376,3.6552,3.6473,3.6478,3.6528,3.6521,3.6591,3.6599,3.6608,3.6743,3.6768,3.6842,3.6717,3.7088,3.7098,3.7107,3.7181,3.72,3.7215,0,0,0,0,0,3.6182,3.6299,3.6284,3.631,3.6446,3.6556,3.6574,3.6582,3.6534,3.6591,3.6622,3.6596,3.6819,3.6757,3.6784,3.6862,3.7084,3.7095,3.7106,3.7174,3.7196,3.7215,0,0,0,0,0,0,3.6243,3.6307,3.6292,3.6432,3.6489,3.6549,3.6622,3.6605,3.6678,3.6668,3.6676,3.6692,3.6823,3.6855,3.6785,3.7012,3.6944,3.6962,3.6986,3.7008,3.7025,3.7015,3.6725,0,0,0,0,0,3.6273,3.6355,3.6407,3.6526,3.6555,3.6584,3.6632,3.6633,3.6693,3.6717,3.6757,3.6817,3.6901,3.6956,3.7035,3.7185,3.7201,3.7253,3.727,3.7284,3.7299,3.7383,3.7407,3.7149,3.7149,3.7149,0,0,3.6335,3.638,3.6432,3.6539,3.6584,3.6671,3.6604,3.6699,3.6764,3.6732,3.6854,3.6886,3.6954,3.7094,3.7157,3.7125,3.7374,3.7298,3.7309,3.7317,3.7397,3.7422,3.7444,3.7157,3.7155,3.7154,0,0,3.6493,3.6535,3.6639,3.6685,3.6753,3.6771,3.6796,3.6859,3.6879,3.7002,3.6979,3.7058,3.7201,3.7251,3.7295,3.7474,3.7454,3.75,3.7589,3.7671,3.7692,3.771,3.7776,3.7799,3.7514,3.7515,3.7515,0,3.6562,3.6692,3.6695,3.6793,3.6841,3.6815,3.6922,3.6967,3.7058,3.7093,3.7054,3.7235,3.7279,3.7431,3.7474,3.751,3.7541,3.7492,3.7688,3.7706,3.7723,3.7787,3.7811,3.752,3.7519,3.7519,3.7518,0,3.6775,3.6865,3.6941,3.7029,3.7086,3.7188,3.7209,3.7267,3.7263,3.7286,3.7412,3.7464,3.7554,3.759,3.7587,3.7743,3.7721,3.7685,3.7618,3.7753,3.7813,3.7837,3.7527,3.7526,3.7524,3.7523,0,0,3.6976,3.7064,3.7093,3.7133,3.7206,3.7277,3.7378,3.7466,3.7516,3.758,3.7667,3.7789,3.7757,3.7808,3.781,3.7882,3.8023,3.7838,3.784,3.7873,3.8201,3.8228,3.8256,3.8009,3.8014,3.8018,3.8196,0,3.7142,3.7319,3.7325,3.7488,3.7572,3.7549,3.7637,3.7693,3.7717,3.7794,3.7821,3.7908,3.7858,3.7889,3.7959,3.7991,3.8089,3.7978,3.8093,3.8097,3.8078,3.8287,3.8316,3.8481,3.8219,3.8223,3.8225,0,3.7359,3.7429,3.76,3.7663,3.7698,3.7778,3.786,3.7932,3.7996,3.8008,3.8065,3.8058,3.8163,3.8091,3.8238,3.8162,3.821,3.8233,3.8239,3.8252,3.8171,3.8307,3.8534,3.856,3.8262,3.8259,3.8256,0,3.7492,3.7629,3.7749,3.7784,3.7859,3.7916,3.7951,3.8009,3.8062,3.8134,3.8169,3.8252,3.8298,3.8364,3.838,3.8325,3.8528,3.8456,3.8544,3.8544,3.8589,3.8587,3.8829,3.8616,3.8616,3.8615,3.8615,0,3.7678,3.7784,3.781,3.7884,3.8002,3.801,3.8127,3.8158,3.8211,3.8292,3.8276,3.8353,3.8369,3.845,3.8463,3.8584,3.8605,3.862,3.8622,3.8622,3.8621,3.8655,3.8644,3.8622,3.862,3.8619,3.8618,0,3.7846,3.7868,3.7998,3.8058,3.8076,3.8161,3.8214,3.8287,3.8309,3.8412,3.8437,3.8472,3.8567,3.8589,3.8701,3.871,3.8854,3.8845,3.8833,3.8833,3.892,3.8913,3.9195,3.9233,3.8993,3.8995,3.8997,0,3.7965,3.8046,3.8115,3.8168,3.8205,3.829,3.8343,3.8354,3.8411,3.849,3.8554,3.8646,3.872,3.8873,3.891,3.8996,3.899,3.9083,3.9003,3.9001,3.8994,3.899,3.8999,3.9099,3.9101,3.9103,3.9105,0,3.8173,3.818,3.8257,3.8339,3.8404,3.8469,3.8531,3.8576,3.8595,3.866,3.8756,3.8814,3.8929,3.9022,3.9108,3.9145,3.9131,3.913,3.9155,3.9157,3.9148,3.9156,3.8877,3.9124,3.9122,3.912,3.9119,3.9119,3.8322,3.8394,3.8454,3.8541,3.8589,3.8648,3.8719,3.875,3.883,3.8924,3.8925,3.9031,3.9094,3.9209,3.9251,3.9335,3.9307,3.9342,3.9352,3.9361,3.937,3.9132,3.935,3.935,3.9349,3.9349,3.9349,0,3.8532,3.8569,3.8649,3.8737,3.8806,3.8783,3.8852,3.8912,3.9004,3.9064,3.9137,3.9249,3.9339,3.9383,3.9473,3.9532,3.9527,3.9555,3.9552,3.9561,3.9389,3.936,3.9557,3.9557,3.9557,3.9557,3.9557,3.9557,3.8649,3.877,3.8784,3.8929,3.8966,3.9068,3.9109,3.9164,3.9212,3.9337,3.9411,3.9439,3.9493,3.9587,3.9669,3.968,3.9715,3.9748,3.9755,3.9594,3.9573,3.9553,3.9525,3.9754,3.9755,3.992,3.9922,3.9923]},{"header":{"parameterUnit":"m.s-1","parameterCategory":1,"la1":30.2991,"la2":30.254,"lo1":-89.0895,"lo2":-89.0444,"dx":0.0017,"dy":0.0017,"nx":28,"ny":28,"refTime":"2023-02-12T09:00:00:Z","depth":0,"parameterNumber":3,"parameterNumberName":"V-component_of_WINDS"},"data":[0,0,0,0,0,0,0,0,0,0,0,0,0,0,0,0,0,0,0,0,0,0,0,0,0,0,0,0,0,0,0,0,0,0,0,0,0,0,0,0,0,0,0,0,0,0,0,0,0,0,0,0,0,0,0,0,0,0,-3.2791,-3.2793,0,-3.2977,-3.2979,-3.2981,-3.3005,-3.3003,-3.3001,-3.3,-3.3191,-3.3198,-3.3205,0,0,0,0,0,0,0,0,0,0,0,0,0,-3.2459,-3.2465,-3.2791,-3.2793,-3.2795,-3.2976,-3.2979,-3.2981,-3.3005,-3.3003,-3.3001,-3.2999,-3.3189,-3.3197,-3.3205,0,0,0,0,0,0,0,0,0,0,0,0,0,-3.262,-3.2467,-3.279,-3.2829,-3.2834,-3.2976,-3.2979,-3.2982,-3.3006,-3.3003,-3.3,-3.2998,-3.3186,-3.3196,-3.3206,-3.3323,0,0,-3.3237,-3.3242,0,0,0,0,0,0,0,0,-3.2611,-3.2632,-3.2821,-3.2827,-3.2833,-3.2965,-3.2932,-3.3096,-3.3006,-3.2941,-3.2999,-3.2996,-3.3118,-3.3134,-3.3175,-3.3332,-3.334,-3.3238,-3.3244,-3.3249,-3.3252,0,0,0,0,0,0,0,-3.2599,-3.2624,-3.2864,-3.2824,-3.2831,-3.2838,-3.2858,-3.2964,-3.3042,-3.2946,-3.2948,-3.297,-3.3121,-3.3165,-3.3179,-3.3343,-3.3238,-3.3247,-3.3253,-3.3257,-3.3607,-3.361,0,0,0,0,0,0,-3.2581,-3.2615,-3.2858,-3.287,-3.2713,-3.2846,-3.2868,-3.2925,-3.3041,-3.3056,-3.2972,-3.297,-3.3149,-3.3167,-3.3186,-3.3331,-3.3249,-3.3258,-3.3264,-3.3604,-3.3608,-3.3611,0,0,0,0,0,0,-3.2574,-3.2602,-3.2851,-3.2743,-3.2775,-3.2855,-3.2918,-3.293,-3.2974,-3.3061,-3.3075,-3.3002,-3.3147,-3.3172,-3.3289,-3.3338,-3.3263,-3.3272,-3.36,-3.3605,-3.3609,-3.3622,0,0,0,0,0,0,-3.2564,-3.26,-3.2644,-3.2744,-3.2781,-3.295,-3.2921,-3.2936,-3.2991,-3.2991,-3.3093,-3.3107,-3.3147,-3.3274,-3.3299,-3.3351,-3.328,-3.3596,-3.3602,-3.3608,-3.3617,-3.3626,-3.3634,0,0,0,0,0,-3.2552,-3.264,-3.2646,-3.2675,-3.2838,-3.2953,-3.2974,-3.3018,-3.2995,-3.3041,-3.3097,-3.3104,-3.3329,-3.3285,-3.3314,-3.337,-3.3593,-3.36,-3.3607,-3.3614,-3.3625,-3.3634,0,0,0,0,0,0,-3.2544,-3.2654,-3.2662,-3.2784,-3.2859,-3.2956,-3.3015,-3.3028,-3.3111,-3.3107,-3.3158,-3.3181,-3.3296,-3.3345,-3.3295,-3.349,-3.3459,-3.3472,-3.3454,-3.3465,-3.3473,-3.3459,-3.3288,0,0,0,0,0,-3.2556,-3.264,-3.2731,-3.2831,-3.2868,-3.2935,-3.2987,-3.3014,-3.3094,-3.3126,-3.319,-3.3268,-3.3356,-3.3413,-3.3499,-3.3625,-3.3648,-3.3677,-3.3686,-3.3692,-3.3703,-3.3775,-3.3789,-3.3635,-3.3635,-3.3635,0,0,-3.2583,-3.2653,-3.2703,-3.2831,-3.2892,-3.2978,-3.2961,-3.3053,-3.3118,-3.314,-3.3255,-3.3305,-3.3395,-3.3517,-3.3574,-3.3561,-3.3751,-3.3701,-3.3706,-3.3714,-3.3784,-3.3798,-3.3811,-3.364,-3.3639,-3.3638,0,0,-3.2675,-3.2736,-3.2826,-3.2888,-3.2981,-3.3026,-3.3047,-3.3144,-3.3178,-3.3294,-3.3312,-3.3391,-3.3541,-3.3606,-3.3658,-3.3777,-3.3787,-3.3803,-3.3847,-3.3917,-3.3929,-3.394,-3.3984,-3.3999,-3.3814,-3.3814,-3.3814,0,-3.2697,-3.2827,-3.2871,-3.2963,-3.3019,-3.3043,-3.3136,-3.3194,-3.331,-3.3349,-3.3333,-3.3524,-3.3586,-3.3724,-3.3753,-3.3795,-3.3822,-3.3792,-3.3923,-3.3935,-3.3946,-3.3988,-3.4005,-3.3815,-3.3815,-3.3815,-3.3815,0,-3.2849,-3.2939,-3.3001,-3.3113,-3.3176,-3.3268,-3.3328,-3.3387,-3.3409,-3.3456,-3.3575,-3.365,-3.3753,-3.3788,-3.381,-3.393,-3.392,-3.3913,-3.3883,-3.3961,-3.4002,-3.4019,-3.3817,-3.3817,-3.3817,-3.3816,0,0,-3.2941,-3.3077,-3.3099,-3.3151,-3.3256,-3.3327,-3.342,-3.352,-3.3571,-3.3651,-3.3731,-3.3859,-3.3854,-3.3914,-3.3944,-3.4005,-3.4096,-3.3991,-3.3994,-3.4009,-3.4234,-3.4239,-3.4257,-3.4103,-3.4106,-3.4109,-3.4227,0,-3.3046,-3.3212,-3.3256,-3.3398,-3.3483,-3.3507,-3.3589,-3.3663,-3.371,-3.3789,-3.3841,-3.3931,-3.3917,-3.3953,-3.4014,-3.4071,-3.4142,-3.4064,-3.418,-3.4183,-3.4157,-3.4278,-3.4283,-3.4391,-3.4243,-3.4246,-3.4248,0,-3.3191,-3.3274,-3.3424,-3.352,-3.3557,-3.3629,-3.3726,-3.3801,-3.3886,-3.3916,-3.3983,-3.4008,-3.4108,-3.4073,-3.4212,-3.4157,-3.4208,-3.4243,-3.4249,-3.4262,-3.4221,-3.4295,-3.4427,-3.4443,-3.4273,-3.4271,-3.4269,0,-3.3244,-3.3393,-3.3503,-3.3546,-3.366,-3.3711,-3.3761,-3.3843,-3.3901,-3.3986,-3.4025,-3.412,-3.4172,-3.4246,-3.4296,-3.4266,-3.4432,-3.44,-3.446,-3.4459,-3.4494,-3.4492,-3.4636,-3.4526,-3.4525,-3.4525,-3.4525,0,-3.3357,-3.3448,-3.3528,-3.3596,-3.37,-3.375,-3.3851,-3.3902,-3.3976,-3.4055,-3.4082,-3.4156,-3.4218,-3.43,-3.4341,-3.4451,-3.4474,-3.4502,-3.4511,-3.45,-3.4496,-3.4534,-3.4528,-3.4529,-3.4528,-3.4528,-3.4527,0,-3.3434,-3.3491,-3.3612,-3.3711,-3.3738,-3.381,-3.3895,-3.3962,-3.401,-3.4109,-3.4136,-3.4211,-3.431,-3.4368,-3.4492,-3.4519,-3.4642,-3.4648,-3.4613,-3.4618,-3.4675,-3.4669,-3.4849,-3.4876,-3.4746,-3.4747,-3.4748,0,-3.3502,-3.3573,-3.368,-3.3734,-3.3785,-3.3872,-3.3932,-3.3985,-3.4046,-3.4149,-3.4205,-3.4305,-3.4388,-3.4545,-3.4612,-3.4708,-3.4717,-3.4774,-3.4731,-3.4718,-3.4719,-3.4715,-3.4723,-3.4781,-3.4782,-3.4783,-3.4783,0,-3.3619,-3.3644,-3.3728,-3.3824,-3.3894,-3.3972,-3.4049,-3.4092,-3.4158,-3.4226,-3.4327,-3.4392,-3.4519,-3.4619,-3.4721,-3.4774,-3.4791,-3.4796,-3.4816,-3.4804,-3.4782,-3.4796,-3.4633,-3.4792,-3.4791,-3.479,-3.479,-3.479,-3.3695,-3.3759,-3.3845,-3.3938,-3.4002,-3.4074,-3.4143,-3.4199,-3.4284,-3.4392,-3.4419,-3.4525,-3.4611,-3.475,-3.4805,-3.489,-3.4881,-3.4908,-3.4915,-3.4922,-3.4924,-3.4768,-3.4909,-3.4909,-3.4909,-3.4908,-3.4908,0,-3.3813,-3.387,-3.3955,-3.4063,-3.4137,-3.4146,-3.4232,-3.4294,-3.4387,-3.4465,-3.4547,-3.4664,-3.4762,-3.4837,-3.4937,-3.4991,-3.5001,-3.5016,-3.5013,-3.5025,-3.4926,-3.49,-3.5006,-3.5006,-3.5006,-3.5006,-3.5006,-3.5006,-3.3884,-3.3994,-3.403,-3.4173,-3.4229,-3.4334,-3.4383,-3.445,-3.4513,-3.4642,-3.4723,-3.4771,-3.4849,-3.4955,-3.5046,-3.5066,-3.5102,-3.5115,-3.5136,-3.5042,-3.5032,-3.5022,-3.4997,-3.5122,-3.5123,-3.5229,-3.523,-3.523]}]]